sat.trackr.live / text

‹ back to catalog

STARLINK-5352

NORAD 56426 · 2023-061BE

PAYLOAD ACTIVE UNKNOWN

§ Identity

Operator
Country
US
Launch date
2023-05-04
Launch site
AFETR
Launch vehicle
Mass (kg)
RCS (m²)

Purposes: comms

External: N2YO · Heavens-Above · Gunter

§ Orbital elements

Epoch: 2026-05-24T23:20:39.187392Z

Period
94.32 min
Inclination
43.0021°
Eccentricity
0.0001103
Mean motion
15.26738190 rev/d
Perigee alt
484.8 km
Apogee alt
486.3 km
Semi-major
6,863.7 km
B*
-8.6406e-6
RAAN
108.9489°
Arg perigee
251.6158°
Mean anomaly
108.4573°
Rev number
16,862

§ Raw data

STARLINK-53521 56426U 23061BE  26144.97267578 -.00000491  00000+0 -86406-5 0  99972 56426  43.0021 108.9489 0001103 251.6158 108.4573 15.26738190168620

JSON: /api/v1/satellites/56426 · /tle

For live sub-satellite position, see the globe view (requires WebGL).

§ Visibility from observer

Set your observer location to see the next 7 days of passes ≥ 10°. The values pass through the URL so the page stays shareable.

No JS? Fill the form by hand. The geolocation button needs JavaScript.